Кёргёз

Азербайджан     40°18′14″N   49°37′49″E
темп.,
°C
ветер,
м/с
пор.,
м/с
влажн.,
%
обл.,
%
осадки,
мм/ч
давл.,
гПа
погр.,
м
11 апреля, вс
вс1101:00+10с13197953 0.0 1016306
04:00+10с1422755 0.0 1015365
07:00+11с1320725 0.0 1017322
10:00+13с1317635 0.0 1017327
13:00+15с9125696 0.0 1017244
16:00+14ссв111657100 0.0 1012215
19:00+13ссз3361100 0.0 101557
22:00+13всв1167100 0.0 101511
12 апреля, пн
пн1201:00+12юз3371100 0.0 101527
04:00+12ююз227699 0.0 101512
07:00+12ююз12784 0.0 101514
10:00+14ююз22715 0.0 1016117
13:00+13вюв457717 0.0 1016151
16:00+13вюв558617 0.0 1016159
19:00+12всв348913 0.0 1018108
22:00+13с56800 0.0 1020115
13 апреля, вт
вт1301:00+12с7108347 0.0 1019138
04:00+12с7128077 0.0 1019168
07:00+12с7108177 0.0 1020150
10:00+15с786029 0.0 1020199
13:00+16св55475 0.0 1019282
16:00+17всв56440 0.0 1017310
19:00+15с68480 0.0 1017126
22:00+15ссз5649100 0.0 101773
14 апреля, ср
ср1401:00+14ссв6952100 0.0 1014113
04:00+13с6860100 0.2 101384
07:00+13с4560100 0.1 101347
10:00+16ссв3347100 0.1 1013143
13:00+17в3342100 0.0 1012294
16:00+17всв33485 0.0 1011212
19:00+15с811550 0.0 1012193
22:00+14с91563100 0.0 1014242
15 апреля, чт
чт1501:00+14ссз56680 0.0 101467
04:00+13ссз22721 0.0 101522
07:00+13с46710 0.0 101573
10:00+15ссв34610 0.0 1016284
13:00+15ю54650 0.0 1015317
16:00+15ю45690 0.0 1014219
19:00+13ю22734 0.0 1015113
22:00+13юз11721 0.0 101635